Year,Month,Day,Hour,Minute,Value (Times are PST for windgust in km/hr)
2016,03,10,00,00,37.00
2016,03,10,00,01,17.70
2016,03,10,00,02,17.70
2016,03,10,00,03,19.30
2016,03,10,00,04,19.30
2016,03,10,00,05,25.70
2016,03,10,00,06,16.10
2016,03,10,00,07,20.90
2016,03,10,00,08,30.60
2016,03,10,00,09,17.70
2016,03,10,00,10,20.90
2016,03,10,00,11,17.70
2016,03,10,00,12,19.30
2016,03,10,00,13,25.70
2016,03,10,00,14,24.20
2016,03,10,00,15,22.50
2016,03,10,00,16,38.60
2016,03,10,00,17,30.60
2016,03,10,00,18,24.20
2016,03,10,00,19,25.70
2016,03,10,00,20,20.90
2016,03,10,00,21,24.20
2016,03,10,00,22,51.50
2016,03,10,00,23,24.20
2016,03,10,00,24,19.30
2016,03,10,00,25,16.10
2016,03,10,00,26,22.50
2016,03,10,00,27,32.20
2016,03,10,00,28,33.80
2016,03,10,00,29,32.20
2016,03,10,00,30,33.80
2016,03,10,00,31,37.00
2016,03,10,00,32,29.00
2016,03,10,00,33,35.40
2016,03,10,00,34,24.20
2016,03,10,00,35,35.40
2016,03,10,00,36,24.20
2016,03,10,00,37,33.80
2016,03,10,00,38,33.80
2016,03,10,00,39,49.90
2016,03,10,00,40,38.60
2016,03,10,00,41,37.00
2016,03,10,00,42,27.40
2016,03,10,00,43,32.20
2016,03,10,00,44,30.60
2016,03,10,00,45,35.40
2016,03,10,00,46,40.20
2016,03,10,00,47,30.60
2016,03,10,00,48,32.20
2016,03,10,00,49,27.40
2016,03,10,00,50,25.70
2016,03,10,00,51,30.60
2016,03,10,00,52,33.80
2016,03,10,00,53,27.40
2016,03,10,00,54,22.50
2016,03,10,00,55,20.90
2016,03,10,00,56,25.70
2016,03,10,00,57,27.40
2016,03,10,00,58,25.70
2016,03,10,00,59,35.40
2016,03,10,01,00,35.40
2016,03,10,01,01,30.60
2016,03,10,01,02,40.20
2016,03,10,01,03,33.80
2016,03,10,01,04,40.20
2016,03,10,01,05,49.90
2016,03,10,01,06,49.90
2016,03,10,01,07,41.80
2016,03,10,01,08,30.60
2016,03,10,01,09,40.20
2016,03,10,01,10,30.60
2016,03,10,01,11,41.80
2016,03,10,01,12,57.90
2016,03,10,01,13,49.90
2016,03,10,01,14,51.50
2016,03,10,01,15,40.20
2016,03,10,01,16,45.10
2016,03,10,01,17,40.20
2016,03,10,01,18,33.80
2016,03,10,01,19,37.00
2016,03,10,01,20,30.60
2016,03,10,01,21,49.90
2016,03,10,01,22,35.40
2016,03,10,01,23,43.50
2016,03,10,01,24,49.90
2016,03,10,01,25,35.40
2016,03,10,01,26,41.80
2016,03,10,01,27,33.80
2016,03,10,01,28,41.80
2016,03,10,01,29,30.60
2016,03,10,01,30,22.50
2016,03,10,01,31,25.70
2016,03,10,01,32,17.70
2016,03,10,01,33,24.20
2016,03,10,01,34,29.00
2016,03,10,01,35,25.70
2016,03,10,01,36,29.00
2016,03,10,01,37,33.80
2016,03,10,01,38,32.20
2016,03,10,01,39,33.80
2016,03,10,01,40,22.50
2016,03,10,01,41,30.60
2016,03,10,01,42,32.20
2016,03,10,01,43,32.20
2016,03,10,01,44,33.80
2016,03,10,01,45,27.40
2016,03,10,01,46,37.00
2016,03,10,01,47,30.60
2016,03,10,01,48,43.50
2016,03,10,01,49,32.20
2016,03,10,01,50,35.40
2016,03,10,01,51,33.80
2016,03,10,01,52,32.20
2016,03,10,01,53,33.80
2016,03,10,01,54,33.80
2016,03,10,01,55,43.50
2016,03,10,01,56,38.60
2016,03,10,01,57,38.60
2016,03,10,01,58,30.60
2016,03,10,01,59,35.40
2016,03,10,02,00,37.00
2016,03,10,02,01,37.00
2016,03,10,02,02,33.80
2016,03,10,02,03,29.00
2016,03,10,02,04,32.20
2016,03,10,02,05,33.80
2016,03,10,02,06,33.80
2016,03,10,02,07,29.00
2016,03,10,02,08,30.60
2016,03,10,02,09,38.60
2016,03,10,02,10,32.20
2016,03,10,02,11,33.80
2016,03,10,02,12,33.80
2016,03,10,02,13,25.70
2016,03,10,02,14,20.90
2016,03,10,02,15,24.20
2016,03,10,02,16,43.50
2016,03,10,02,17,25.70
2016,03,10,02,18,43.50
2016,03,10,02,19,37.00
2016,03,10,02,20,38.60
2016,03,10,02,21,37.00
2016,03,10,02,22,61.20
2016,03,10,02,23,45.10
2016,03,10,02,24,40.20
2016,03,10,02,25,38.60
2016,03,10,02,26,35.40
2016,03,10,02,27,27.40
2016,03,10,02,28,29.00
2016,03,10,02,29,20.90
2016,03,10,02,30,20.90
2016,03,10,02,31,22.50
2016,03,10,02,32,30.60
2016,03,10,02,33,30.60
2016,03,10,02,34,32.20
2016,03,10,02,35,40.20
2016,03,10,02,36,33.80
2016,03,10,02,37,19.30
2016,03,10,02,38,25.70
2016,03,10,02,39,30.60
2016,03,10,02,40,29.00
2016,03,10,02,41,29.00
2016,03,10,02,42,27.40
2016,03,10,02,43,29.00
2016,03,10,02,44,30.60
2016,03,10,02,45,33.80
2016,03,10,02,46,25.70
2016,03,10,02,47,37.00
2016,03,10,02,48,25.70
2016,03,10,02,49,33.80
2016,03,10,02,50,25.70
2016,03,10,02,51,22.50
2016,03,10,02,52,25.70
2016,03,10,02,53,22.50
2016,03,10,02,54,27.40
2016,03,10,02,55,19.30
2016,03,10,02,56,35.40
2016,03,10,02,57,32.20
2016,03,10,02,58,37.00
2016,03,10,02,59,35.40
2016,03,10,03,00,30.60
2016,03,10,03,01,30.60
2016,03,10,03,02,27.40
2016,03,10,03,03,19.30
2016,03,10,03,04,22.50
2016,03,10,03,05,29.00
2016,03,10,03,06,22.50
2016,03,10,03,07,37.00
2016,03,10,03,08,20.90
2016,03,10,03,09,25.70
2016,03,10,03,10,25.70
2016,03,10,03,11,32.20
2016,03,10,03,12,17.70
2016,03,10,03,13,19.30
2016,03,10,03,14,19.30
2016,03,10,03,15,25.70
2016,03,10,03,16,22.50
2016,03,10,03,17,24.20
2016,03,10,03,18,24.20
2016,03,10,03,19,22.50
2016,03,10,03,20,27.40
2016,03,10,03,21,25.70
2016,03,10,03,22,27.40
2016,03,10,03,23,29.00
2016,03,10,03,24,19.30
2016,03,10,03,25,19.30
2016,03,10,03,26,25.70
2016,03,10,03,27,30.60
2016,03,10,03,28,22.50
2016,03,10,03,29,30.60
2016,03,10,03,30,32.20
2016,03,10,03,31,25.70
2016,03,10,03,32,32.20
2016,03,10,03,33,32.20
2016,03,10,03,34,25.70
2016,03,10,03,35,37.00
2016,03,10,03,36,37.00
2016,03,10,03,37,32.20
2016,03,10,03,38,29.00
2016,03,10,03,39,30.60
2016,03,10,03,40,30.60
2016,03,10,03,41,30.60
2016,03,10,03,42,30.60
2016,03,10,03,43,29.00
2016,03,10,03,44,24.20
2016,03,10,03,45,30.60
2016,03,10,03,46,22.50
2016,03,10,03,47,27.40
2016,03,10,03,48,32.20
2016,03,10,03,49,33.80
2016,03,10,03,50,32.20
2016,03,10,03,51,24.20
2016,03,10,03,52,22.50
2016,03,10,03,53,20.90
2016,03,10,03,54,27.40
2016,03,10,03,55,29.00
2016,03,10,03,56,29.00
2016,03,10,03,57,19.30
2016,03,10,03,58,22.50
2016,03,10,03,59,19.30
2016,03,10,04,00,16.10
2016,03,10,04,01,19.30
2016,03,10,04,02,33.80
2016,03,10,04,03,27.40
2016,03,10,04,04,19.30
2016,03,10,04,05,32.20
2016,03,10,04,06,25.70
2016,03,10,04,07,25.70
2016,03,10,04,08,20.90
2016,03,10,04,09,30.60
2016,03,10,04,10,20.90
2016,03,10,04,11,27.40
2016,03,10,04,12,32.20
2016,03,10,04,13,27.40
2016,03,10,04,14,35.40
2016,03,10,04,15,25.70
2016,03,10,04,16,20.90
2016,03,10,04,17,24.20
2016,03,10,04,18,24.20
2016,03,10,04,19,27.40
2016,03,10,04,20,24.20
2016,03,10,04,21,25.70
2016,03,10,04,22,29.00
2016,03,10,04,23,33.80
2016,03,10,04,24,22.50
2016,03,10,04,25,25.70
2016,03,10,04,26,22.50
2016,03,10,04,27,29.00
2016,03,10,04,28,32.20
2016,03,10,04,29,27.40
2016,03,10,04,30,35.40
2016,03,10,04,31,24.20
2016,03,10,04,32,33.80
2016,03,10,04,33,46.70
2016,03,10,04,34,41.80
2016,03,10,04,35,29.00
2016,03,10,04,36,37.00
2016,03,10,04,37,29.00
2016,03,10,04,38,33.80
2016,03,10,04,39,38.60
2016,03,10,04,40,40.20
2016,03,10,04,41,38.60
2016,03,10,04,42,41.80
2016,03,10,04,43,33.80
2016,03,10,04,44,32.20
2016,03,10,04,45,27.40
2016,03,10,04,46,35.40
2016,03,10,04,47,43.50
2016,03,10,04,48,41.80
2016,03,10,04,49,29.00
2016,03,10,04,50,37.00
2016,03,10,04,51,41.80
2016,03,10,04,52,46.70
2016,03,10,04,53,35.40
2016,03,10,04,54,41.80
2016,03,10,04,55,30.60
2016,03,10,04,56,24.20
2016,03,10,04,57,14.50
2016,03,10,04,58,20.90
2016,03,10,04,59,20.90
2016,03,10,05,00,38.60
2016,03,10,05,01,40.20
2016,03,10,05,02,56.30
2016,03,10,05,03,43.50
2016,03,10,05,04,35.40
2016,03,10,05,05,40.20
2016,03,10,05,06,27.40
2016,03,10,05,07,30.60
2016,03,10,05,08,25.70
2016,03,10,05,09,20.90
2016,03,10,05,10,33.80
2016,03,10,05,11,40.20
2016,03,10,05,12,38.60
2016,03,10,05,13,33.80
2016,03,10,05,14,43.50
2016,03,10,05,15,38.60
2016,03,10,05,16,40.20
2016,03,10,05,17,41.80
2016,03,10,05,18,49.90
2016,03,10,05,19,37.00
2016,03,10,05,20,54.70
2016,03,10,05,21,45.10
2016,03,10,05,22,41.80
2016,03,10,05,23,46.70
2016,03,10,05,24,57.90
2016,03,10,05,25,48.30
2016,03,10,05,26,48.30
2016,03,10,05,27,41.80
2016,03,10,05,28,57.90
2016,03,10,05,29,67.60
2016,03,10,05,30,57.90
2016,03,10,05,31,49.90
2016,03,10,05,32,64.40
2016,03,10,05,33,53.10
2016,03,10,05,34,46.70
2016,03,10,05,35,53.10
2016,03,10,05,36,56.30
2016,03,10,05,37,59.50
2016,03,10,05,38,61.20
2016,03,10,05,39,37.00
2016,03,10,05,40,48.30
2016,03,10,05,41,51.50
2016,03,10,05,42,59.50
2016,03,10,05,43,57.90
2016,03,10,05,44,45.10
2016,03,10,05,45,57.90
2016,03,10,05,46,51.50
2016,03,10,05,47,45.10
2016,03,10,05,48,54.70
2016,03,10,05,49,77.30
2016,03,10,05,50,57.90
2016,03,10,05,51,54.70
2016,03,10,05,52,64.40
2016,03,10,05,53,48.30
2016,03,10,05,54,54.70
2016,03,10,05,55,54.70
2016,03,10,05,56,48.30
2016,03,10,05,57,51.50
2016,03,10,05,58,49.90
2016,03,10,05,59,57.90
2016,03,10,06,00,49.90
2016,03,10,06,01,48.30
2016,03,10,06,02,38.60
2016,03,10,06,03,46.70
2016,03,10,06,04,45.10
2016,03,10,06,05,45.10
2016,03,10,06,06,40.20
2016,03,10,06,07,49.90
2016,03,10,06,08,48.30
2016,03,10,06,09,37.00
2016,03,10,06,10,41.80
2016,03,10,06,11,40.20
2016,03,10,06,12,38.60
2016,03,10,06,13,40.20
2016,03,10,06,14,35.40
2016,03,10,06,15,45.10
2016,03,10,06,16,43.50
2016,03,10,06,17,32.20
2016,03,10,06,18,38.60
2016,03,10,06,19,40.20
2016,03,10,06,20,33.80
2016,03,10,06,21,40.20
2016,03,10,06,22,35.40
2016,03,10,06,23,37.00
2016,03,10,06,24,33.80
2016,03,10,06,25,32.20
2016,03,10,06,26,35.40
2016,03,10,06,27,40.20
2016,03,10,06,28,37.00
2016,03,10,06,29,30.60
2016,03,10,06,30,32.20
2016,03,10,06,31,40.20
2016,03,10,06,32,48.30
2016,03,10,06,33,41.80
2016,03,10,06,34,35.40
2016,03,10,06,35,45.10
2016,03,10,06,36,37.00
2016,03,10,06,37,33.80
2016,03,10,06,38,33.80
2016,03,10,06,39,32.20
2016,03,10,06,40,40.20
2016,03,10,06,41,22.50
2016,03,10,06,42,37.00
2016,03,10,06,43,37.00
2016,03,10,06,44,37.00
2016,03,10,06,45,38.60
2016,03,10,06,46,38.60
2016,03,10,06,47,41.80
2016,03,10,06,48,38.60
2016,03,10,06,49,37.00
2016,03,10,06,50,35.40
2016,03,10,06,51,33.80
2016,03,10,06,52,20.90
2016,03,10,06,53,33.80
2016,03,10,06,54,27.40
2016,03,10,06,55,32.20
2016,03,10,06,56,25.70
2016,03,10,06,57,25.70
2016,03,10,06,58,27.40
2016,03,10,06,59,22.50
2016,03,10,07,00,27.40
2016,03,10,07,01,33.80
2016,03,10,07,02,30.60
2016,03,10,07,03,25.70
2016,03,10,07,04,32.20
2016,03,10,07,05,20.90
2016,03,10,07,06,20.90
2016,03,10,07,07,20.90
2016,03,10,07,08,20.90
2016,03,10,07,09,17.70
2016,03,10,07,10,20.90
2016,03,10,07,11,24.20
2016,03,10,07,12,30.60
2016,03,10,07,13,20.90
2016,03,10,07,14,22.50
2016,03,10,07,15,25.70
2016,03,10,07,16,19.30
2016,03,10,07,17,19.30
2016,03,10,07,18,20.90
2016,03,10,07,19,27.40
2016,03,10,07,20,30.60
2016,03,10,07,21,27.40
2016,03,10,07,22,25.70
2016,03,10,07,23,35.40
2016,03,10,07,24,24.20
2016,03,10,07,25,22.50
2016,03,10,07,26,17.70
2016,03,10,07,27,17.70
2016,03,10,07,28,20.90
2016,03,10,07,29,19.30
2016,03,10,07,30,20.90
2016,03,10,07,31,19.30
2016,03,10,07,32,17.70
2016,03,10,07,33,25.70
2016,03,10,07,34,25.70
2016,03,10,07,35,22.50
2016,03,10,07,36,22.50
2016,03,10,07,37,22.50
2016,03,10,07,38,17.70
2016,03,10,07,39,16.10
2016,03,10,07,40,19.30
2016,03,10,07,41,25.70
2016,03,10,07,42,29.00
2016,03,10,07,43,22.50
2016,03,10,07,44,17.70
2016,03,10,07,45,20.90
2016,03,10,07,46,22.50
2016,03,10,07,47,20.90
2016,03,10,07,48,25.70
2016,03,10,07,49,20.90
2016,03,10,07,50,24.20
2016,03,10,07,51,20.90
2016,03,10,07,52,17.70
2016,03,10,07,53,20.90
2016,03,10,07,54,27.40
2016,03,10,07,55,20.90
2016,03,10,07,56,14.50
2016,03,10,07,57,14.50
2016,03,10,07,58,11.30
2016,03,10,07,59,14.50
2016,03,10,08,00,14.50
2016,03,10,08,01,14.50
2016,03,10,08,02,12.90
2016,03,10,08,03,14.50
2016,03,10,08,04,14.50
2016,03,10,08,05,16.10
2016,03,10,08,06,14.50
2016,03,10,08,07,17.70
2016,03,10,08,08,17.70
2016,03,10,08,09,16.10
2016,03,10,08,10,17.70
2016,03,10,08,11,9.60
2016,03,10,08,12,16.10
2016,03,10,08,13,19.30
2016,03,10,08,14,12.90
2016,03,10,08,15,16.10
2016,03,10,08,16,16.10
2016,03,10,08,17,24.20
2016,03,10,08,18,17.70
2016,03,10,08,19,22.50
2016,03,10,08,20,14.50
2016,03,10,08,21,17.70
2016,03,10,08,22,12.90
2016,03,10,08,23,12.90
2016,03,10,08,24,12.90
2016,03,10,08,25,14.50
2016,03,10,08,26,12.90
2016,03,10,08,27,16.10
2016,03,10,08,28,17.70
2016,03,10,08,29,14.50
2016,03,10,08,30,8.10
2016,03,10,08,31,8.10
2016,03,10,08,32,11.30
2016,03,10,08,33,6.40
2016,03,10,08,34,8.10
2016,03,10,08,35,8.10
2016,03,10,08,36,9.60
2016,03,10,08,37,14.50
2016,03,10,08,38,11.30
2016,03,10,08,39,14.50
2016,03,10,08,40,9.60
2016,03,10,08,41,6.40
2016,03,10,08,42,6.40
2016,03,10,08,43,9.60
2016,03,10,08,44,8.10
2016,03,10,08,45,8.10
2016,03,10,08,46,9.60
2016,03,10,08,47,8.10
2016,03,10,08,48,6.40
2016,03,10,08,49,6.40
2016,03,10,08,50,8.10
2016,03,10,08,51,9.60
2016,03,10,08,52,11.30
2016,03,10,08,53,8.10
2016,03,10,08,54,9.60
2016,03,10,08,55,8.10
2016,03,10,08,56,4.80
2016,03,10,08,57,11.30
2016,03,10,08,58,14.50
2016,03,10,08,59,9.60
2016,03,10,09,00,6.40
2016,03,10,09,01,6.40
2016,03,10,09,02,11.30
2016,03,10,09,03,14.50
2016,03,10,09,04,14.50
2016,03,10,09,05,16.10
2016,03,10,09,06,8.10
2016,03,10,09,07,9.60
2016,03,10,09,08,6.40
2016,03,10,09,09,9.60
2016,03,10,09,10,14.50
2016,03,10,09,11,16.10
2016,03,10,09,12,8.10
2016,03,10,09,13,8.10
2016,03,10,09,14,9.60
2016,03,10,09,15,9.60
2016,03,10,09,16,4.80
2016,03,10,09,17,14.50
2016,03,10,09,18,11.30
2016,03,10,09,19,12.90
2016,03,10,09,20,11.30
2016,03,10,09,21,11.30
2016,03,10,09,22,9.60
2016,03,10,09,23,8.10
2016,03,10,09,24,9.60
2016,03,10,09,25,6.40
2016,03,10,09,26,9.60
2016,03,10,09,27,9.60
2016,03,10,09,28,9.60
2016,03,10,09,29,11.30
2016,03,10,09,30,9.60
2016,03,10,09,31,9.60
2016,03,10,09,32,11.30
2016,03,10,09,33,8.10
2016,03,10,09,34,8.10
2016,03,10,09,35,8.10
2016,03,10,09,36,16.10
2016,03,10,09,37,9.60
2016,03,10,09,38,8.10
2016,03,10,09,39,6.40
2016,03,10,09,40,8.10
2016,03,10,09,41,11.30
2016,03,10,09,42,11.30
2016,03,10,09,43,11.30
2016,03,10,09,44,9.60
2016,03,10,09,45,9.60
2016,03,10,09,46,12.90
2016,03,10,09,47,11.30
2016,03,10,09,48,8.10
2016,03,10,09,49,12.90
2016,03,10,09,50,12.90
2016,03,10,09,51,14.50
2016,03,10,09,52,19.30
2016,03,10,09,53,14.50
2016,03,10,09,54,17.70
2016,03,10,09,55,12.90
2016,03,10,09,56,16.10
2016,03,10,09,57,14.50
2016,03,10,09,58,22.50
2016,03,10,09,59,19.30
2016,03,10,10,00,12.90
2016,03,10,10,01,14.50
2016,03,10,10,02,16.10
2016,03,10,10,03,12.90
2016,03,10,10,04,16.10
2016,03,10,10,05,12.90
2016,03,10,10,06,12.90
2016,03,10,10,07,14.50
2016,03,10,10,08,12.90
2016,03,10,10,09,6.40
2016,03,10,10,10,8.10
2016,03,10,10,11,6.40
2016,03,10,10,12,11.30
2016,03,10,10,13,8.10
2016,03,10,10,14,6.40
2016,03,10,10,15,9.60
2016,03,10,10,16,8.10
2016,03,10,10,17,4.80
2016,03,10,10,18,3.20
2016,03,10,10,19,8.10
2016,03,10,10,20,11.30
2016,03,10,10,21,9.60
2016,03,10,10,22,11.30
2016,03,10,10,23,4.80
2016,03,10,10,24,9.60
2016,03,10,10,25,9.60
2016,03,10,10,26,12.90
2016,03,10,10,27,11.30
2016,03,10,10,28,11.30
2016,03,10,10,29,12.90
2016,03,10,10,30,11.30
2016,03,10,10,31,11.30
2016,03,10,10,32,8.10
2016,03,10,10,33,12.90
2016,03,10,10,34,17.70
2016,03,10,10,35,16.10
2016,03,10,10,36,14.50
2016,03,10,10,37,8.10
2016,03,10,10,38,11.30
2016,03,10,10,39,8.10
2016,03,10,10,40,11.30
2016,03,10,10,41,14.50
2016,03,10,10,42,9.60
2016,03,10,10,43,11.30
2016,03,10,10,44,12.90
2016,03,10,10,45,12.90
2016,03,10,10,46,16.10
2016,03,10,10,47,16.10
2016,03,10,10,48,16.10
2016,03,10,10,49,17.70
2016,03,10,10,50,11.30
2016,03,10,10,51,16.10
2016,03,10,10,52,17.70
2016,03,10,10,53,16.10
2016,03,10,10,54,12.90
2016,03,10,10,55,16.10
2016,03,10,10,56,16.10
2016,03,10,10,57,19.30
2016,03,10,10,58,22.50
2016,03,10,10,59,19.30
2016,03,10,11,00,12.90
2016,03,10,11,01,16.10
2016,03,10,11,02,11.30
2016,03,10,11,03,11.30
2016,03,10,11,04,16.10
2016,03,10,11,05,14.50
2016,03,10,11,06,17.70
2016,03,10,11,07,17.70
2016,03,10,11,08,14.50
2016,03,10,11,09,20.90
2016,03,10,11,10,20.90
2016,03,10,11,11,22.50
2016,03,10,11,12,20.90
2016,03,10,11,13,12.90
2016,03,10,11,14,12.90
2016,03,10,11,15,16.10
2016,03,10,11,16,11.30
2016,03,10,11,17,9.60
2016,03,10,11,18,12.90
2016,03,10,11,19,9.60
2016,03,10,11,20,9.60
2016,03,10,11,21,9.60
2016,03,10,11,22,11.30
2016,03,10,11,23,12.90
2016,03,10,11,24,12.90
2016,03,10,11,25,17.70
2016,03,10,11,26,14.50
2016,03,10,11,27,22.50
2016,03,10,11,28,24.20
2016,03,10,11,29,22.50
2016,03,10,11,30,19.30
2016,03,10,11,31,12.90
2016,03,10,11,32,17.70
2016,03,10,11,33,16.10
2016,03,10,11,34,14.50
2016,03,10,11,35,16.10
2016,03,10,11,36,25.70
2016,03,10,11,37,22.50
2016,03,10,11,38,16.10
2016,03,10,11,39,17.70
2016,03,10,11,40,25.70
2016,03,10,11,41,19.30
2016,03,10,11,42,12.90
2016,03,10,11,43,16.10
2016,03,10,11,44,16.10
2016,03,10,11,45,27.40
2016,03,10,11,46,24.20
2016,03,10,11,47,22.50
2016,03,10,11,48,22.50
2016,03,10,11,49,30.60
2016,03,10,11,50,16.10
2016,03,10,11,51,24.20
2016,03,10,11,52,20.90
2016,03,10,11,53,17.70
2016,03,10,11,54,19.30
2016,03,10,11,55,29.00
2016,03,10,11,56,20.90
2016,03,10,11,57,14.50
2016,03,10,11,58,19.30
2016,03,10,11,59,12.90
2016,03,10,12,00,16.10
2016,03,10,12,01,14.50
2016,03,10,12,02,9.60
2016,03,10,12,03,8.10
2016,03,10,12,04,11.30
2016,03,10,12,05,9.60
2016,03,10,12,06,4.80
2016,03,10,12,07,16.10
2016,03,10,12,08,11.30
2016,03,10,12,09,17.70
2016,03,10,12,10,11.30
2016,03,10,12,11,14.50
2016,03,10,12,12,8.10
2016,03,10,12,13,9.60
2016,03,10,12,14,11.30
2016,03,10,12,15,11.30
2016,03,10,12,16,12.90
2016,03,10,12,17,19.30
2016,03,10,12,18,14.50
2016,03,10,12,19,16.10
2016,03,10,12,20,12.90
2016,03,10,12,21,17.70
2016,03,10,12,22,17.70
2016,03,10,12,23,17.70
2016,03,10,12,24,14.50
2016,03,10,12,25,16.10
2016,03,10,12,26,14.50
2016,03,10,12,27,20.90
2016,03,10,12,28,16.10
2016,03,10,12,29,14.50
2016,03,10,12,30,14.50
2016,03,10,12,31,16.10
2016,03,10,12,32,17.70
2016,03,10,12,33,17.70
2016,03,10,12,34,16.10
2016,03,10,12,35,20.90
2016,03,10,12,36,20.90
2016,03,10,12,37,14.50
2016,03,10,12,38,12.90
2016,03,10,12,39,14.50
2016,03,10,12,40,17.70
2016,03,10,12,41,14.50
2016,03,10,12,42,4.80
2016,03,10,12,43,16.10
2016,03,10,12,44,12.90
2016,03,10,12,45,6.40
2016,03,10,12,46,9.60
2016,03,10,12,47,8.10
2016,03,10,12,48,1.60
2016,03,10,12,49,4.80
2016,03,10,12,50,14.50
2016,03,10,12,51,16.10
2016,03,10,12,52,22.50
2016,03,10,12,53,20.90
2016,03,10,12,54,16.10
2016,03,10,12,55,19.30
2016,03,10,12,56,16.10
2016,03,10,12,57,27.40
2016,03,10,12,58,24.20
2016,03,10,12,59,20.90
2016,03,10,13,00,19.30
2016,03,10,13,01,17.70
2016,03,10,13,02,17.70
2016,03,10,13,03,19.30
2016,03,10,13,04,24.20
2016,03,10,13,05,20.90
2016,03,10,13,06,20.90
2016,03,10,13,07,17.70
2016,03,10,13,08,19.30
2016,03,10,13,09,19.30
2016,03,10,13,10,20.90
2016,03,10,13,11,19.30
2016,03,10,13,12,25.70
2016,03,10,13,13,19.30
2016,03,10,13,14,22.50
2016,03,10,13,15,20.90
2016,03,10,13,16,20.90
2016,03,10,13,17,19.30
2016,03,10,13,18,16.10
2016,03,10,13,19,19.30
2016,03,10,13,20,19.30
2016,03,10,13,21,20.90
2016,03,10,13,22,11.30
2016,03,10,13,23,8.10
2016,03,10,13,24,6.40
2016,03,10,13,25,8.10
2016,03,10,13,26,4.80
2016,03,10,13,27,11.30
2016,03,10,13,28,17.70
2016,03,10,13,29,9.60
2016,03,10,13,30,20.90
2016,03,10,13,31,11.30
2016,03,10,13,32,14.50
2016,03,10,13,33,16.10
2016,03,10,13,34,29.00
2016,03,10,13,35,27.40
2016,03,10,13,36,17.70
2016,03,10,13,37,19.30
2016,03,10,13,38,17.70
2016,03,10,13,39,20.90
2016,03,10,13,40,25.70
2016,03,10,13,41,14.50
2016,03,10,13,42,17.70
2016,03,10,13,43,16.10
2016,03,10,13,44,20.90
2016,03,10,13,45,19.30
2016,03,10,13,46,29.00
2016,03,10,13,47,20.90
2016,03,10,13,48,25.70
2016,03,10,13,49,27.40
2016,03,10,13,50,29.00
2016,03,10,13,51,38.60
2016,03,10,13,52,27.40
2016,03,10,13,53,27.40
2016,03,10,13,54,22.50
2016,03,10,13,55,30.60
2016,03,10,13,56,25.70
2016,03,10,13,57,20.90
2016,03,10,13,58,22.50
2016,03,10,13,59,17.70
2016,03,10,14,00,17.70
2016,03,10,14,01,20.90
2016,03,10,14,02,29.00
2016,03,10,14,03,20.90
2016,03,10,14,04,19.30
2016,03,10,14,05,24.20
2016,03,10,14,06,22.50
2016,03,10,14,07,20.90
2016,03,10,14,08,24.20
2016,03,10,14,09,17.70
2016,03,10,14,10,22.50
2016,03,10,14,11,20.90
2016,03,10,14,12,27.40
2016,03,10,14,13,22.50
2016,03,10,14,14,22.50
2016,03,10,14,15,22.50
2016,03,10,14,16,16.10
2016,03,10,14,17,12.90
2016,03,10,14,18,12.90
2016,03,10,14,19,22.50
2016,03,10,14,20,22.50
2016,03,10,14,21,22.50
2016,03,10,14,22,20.90
2016,03,10,14,23,17.70
2016,03,10,14,24,20.90
2016,03,10,14,25,22.50
2016,03,10,14,26,19.30
2016,03,10,14,27,19.30
2016,03,10,14,28,22.50
2016,03,10,14,29,12.90
2016,03,10,14,30,14.50
2016,03,10,14,31,16.10
2016,03,10,14,32,16.10
2016,03,10,14,33,12.90
2016,03,10,14,34,22.50
2016,03,10,14,35,24.20
2016,03,10,14,36,22.50
2016,03,10,14,37,25.70
2016,03,10,14,38,19.30
2016,03,10,14,39,20.90
2016,03,10,14,40,22.50
2016,03,10,14,41,22.50
2016,03,10,14,42,24.20
2016,03,10,14,43,19.30
2016,03,10,14,44,20.90
2016,03,10,14,45,19.30
2016,03,10,14,46,17.70
2016,03,10,14,47,14.50
2016,03,10,14,48,19.30
2016,03,10,14,49,22.50
2016,03,10,14,50,19.30
2016,03,10,14,51,20.90
2016,03,10,14,52,25.70
2016,03,10,14,53,19.30
2016,03,10,14,54,16.10
2016,03,10,14,55,25.70
2016,03,10,14,56,20.90
2016,03,10,14,57,19.30
2016,03,10,14,58,12.90
2016,03,10,14,59,22.50
2016,03,10,15,00,22.50
2016,03,10,15,01,16.10
2016,03,10,15,02,14.50
2016,03,10,15,03,14.50
2016,03,10,15,04,12.90
2016,03,10,15,05,16.10
2016,03,10,15,06,14.50
2016,03,10,15,07,19.30
2016,03,10,15,08,17.70
2016,03,10,15,09,12.90
2016,03,10,15,10,17.70
2016,03,10,15,11,22.50
2016,03,10,15,12,19.30
2016,03,10,15,13,19.30
2016,03,10,15,14,24.20
2016,03,10,15,15,25.70
2016,03,10,15,16,22.50
2016,03,10,15,17,29.00
2016,03,10,15,18,27.40
2016,03,10,15,19,19.30
2016,03,10,15,20,24.20
2016,03,10,15,21,27.40
2016,03,10,15,22,29.00
2016,03,10,15,23,19.30
2016,03,10,15,24,25.70
2016,03,10,15,25,32.20
2016,03,10,15,26,24.20
2016,03,10,15,27,22.50
2016,03,10,15,28,27.40
2016,03,10,15,29,30.60
2016,03,10,15,30,29.00
2016,03,10,15,31,25.70
2016,03,10,15,32,22.50
2016,03,10,15,33,25.70
2016,03,10,15,34,29.00
2016,03,10,15,35,24.20
2016,03,10,15,36,19.30
2016,03,10,15,37,29.00
2016,03,10,15,38,32.20
2016,03,10,15,39,29.00
2016,03,10,15,40,27.40
2016,03,10,15,41,35.40
2016,03,10,15,42,25.70
2016,03,10,15,43,25.70
2016,03,10,15,44,27.40
2016,03,10,15,45,27.40
2016,03,10,15,46,22.50
2016,03,10,15,47,29.00
2016,03,10,15,48,22.50
2016,03,10,15,49,24.20
2016,03,10,15,50,24.20
2016,03,10,15,51,19.30
2016,03,10,15,52,24.20
2016,03,10,15,53,24.20
2016,03,10,15,54,22.50
2016,03,10,15,55,17.70
2016,03,10,15,56,20.90
2016,03,10,15,57,25.70
2016,03,10,15,58,35.40
2016,03,10,15,59,32.20
2016,03,10,16,00,25.70
2016,03,10,16,01,27.40
2016,03,10,16,02,22.50
2016,03,10,16,03,20.90
2016,03,10,16,04,22.50
2016,03,10,16,05,24.20
2016,03,10,16,06,22.50
2016,03,10,16,07,20.90
2016,03,10,16,08,22.50
2016,03,10,16,09,19.30
2016,03,10,16,10,24.20
2016,03,10,16,11,19.30
2016,03,10,16,12,29.00
2016,03,10,16,13,27.40
2016,03,10,16,14,24.20
2016,03,10,16,15,24.20
2016,03,10,16,16,27.40
2016,03,10,16,17,20.90
2016,03,10,16,18,17.70
2016,03,10,16,19,22.50
2016,03,10,16,20,20.90
2016,03,10,16,21,19.30
2016,03,10,16,22,22.50
2016,03,10,16,23,20.90
2016,03,10,16,24,17.70
2016,03,10,16,25,27.40
2016,03,10,16,26,24.20
2016,03,10,16,27,25.70
2016,03,10,16,28,27.40
2016,03,10,16,29,24.20
2016,03,10,16,30,25.70
2016,03,10,16,31,24.20
2016,03,10,16,32,17.70
2016,03,10,16,33,27.40
2016,03,10,16,34,30.60
2016,03,10,16,35,25.70
2016,03,10,16,36,27.40
2016,03,10,16,37,25.70
2016,03,10,16,38,27.40
2016,03,10,16,39,22.50
2016,03,10,16,40,25.70
2016,03,10,16,41,19.30
2016,03,10,16,42,22.50
2016,03,10,16,43,20.90
2016,03,10,16,44,19.30
2016,03,10,16,45,24.20
2016,03,10,16,46,25.70
2016,03,10,16,47,20.90
2016,03,10,16,48,19.30
2016,03,10,16,49,24.20
2016,03,10,16,50,24.20
2016,03,10,16,51,17.70
2016,03,10,16,52,19.30
2016,03,10,16,53,22.50
2016,03,10,16,54,19.30
2016,03,10,16,55,24.20
2016,03,10,16,56,24.20
2016,03,10,16,57,19.30
2016,03,10,16,58,22.50
2016,03,10,16,59,19.30
2016,03,10,17,00,24.20
2016,03,10,17,01,19.30
2016,03,10,17,02,16.10
2016,03,10,17,03,16.10
2016,03,10,17,04,19.30
2016,03,10,17,05,17.70
2016,03,10,17,06,14.50
2016,03,10,17,07,16.10
2016,03,10,17,08,20.90
2016,03,10,17,09,16.10
2016,03,10,17,10,17.70
2016,03,10,17,11,19.30
2016,03,10,17,12,16.10
2016,03,10,17,13,20.90
2016,03,10,17,14,14.50
2016,03,10,17,15,12.90
2016,03,10,17,16,14.50
2016,03,10,17,17,12.90
2016,03,10,17,18,12.90
2016,03,10,17,19,17.70
2016,03,10,17,20,16.10
2016,03,10,17,21,16.10
2016,03,10,17,22,16.10
2016,03,10,17,23,19.30